Location: Newark
(43.0000°N, 1.6781°W)
Time: 00:27:26
(UTC+00:00)

LilacSat-2 - Pass Details

Date: 06 December 2022
Orbit: 504 x 521 km, 97.5° (Epoch: 08 February)

Event Time Altitude Azimuth Distance (km) Brightness Sun altitude
Rises 06:35:40 0° 4° (N) 2,618 ? -8.6°
Reaches altitude 10° 06:37:51 10° 356° (N) 1,727 ? -8.2°
Maximum altitude 06:41:18 38° 288° (WNW) 792 ? -7.6°
Drops below altitude 10° 06:44:44 10° 220° (SW) 1,712 ? -7.1°
Sets 06:46:53 0° 212° (SSW) 2,592 ? -6.7°
